COSMOS 2251 DEB, 35987

Orbit data source: Space-Track

COSMOS 2251 DEB, 35987 is space debris in LEO originally from a launch on Wed, 16 Jun 1993 UTC launched from the Plesetsk Missile And Space Complex (PKMTR). The debris from Iridium 33, an American commercial communications satellite, has been tracked extensively since its accidental collision with the defunct Russian satellite Cosmos 2251 in 2009. This event, occurring at high speed in low Earth orbit (LEO), generated thousands of pieces of space debris, significantly increasing the risk of further collisions. The Iridium 33 debris cloud has impacted space traffic management and orbital debris mitigation strategies, making it a subject of ongoing study in space situational awareness.

Loading next visibility...
Identifier
35987, 1993-036AWD
Orbit
LEO
Country
Flag of CISCIS
Related business
Manufacturer
Unknown
Mission
Spacecraft
Bus & Motor
Unknown
Mass
Unknown
Launch date (UTC)
1993-06-16 (33 years ago)
Launch vehicle
Unknown
Launch site
Plesetsk Missile And Space Complex (PKMTR)
Object type
Payload
Rocket body
Debris
Shape & HBR
Unknown shape, 0.1 m
Radar Cross Section
Small (<0.1 m²)

Expand to show TLE details & history
Last TLE update: 2 weeks ago

TLE from 2 weeks ago
0 COSMOS 2251 DEB
1 35987U 93036AWD 26019.39276680  .00002653  00000-0  78279-3 0  9994
2 35987  73.9980 256.5397 0047951  12.5105 347.7229 14.43391780616082
Epoch: 2026-01-19T09:25Z
TLE epoch observation values (Epoch: 2026-01-19T09:25:35.051Z)
Latitude
-0.00002°
Longitude
-3.64599°
Altitude
716.548 km
Speed
7.515 km/s
True Right ascension
17h 06m 09s
True Declination
0° 00' 00"
Sunlit
Object was in daylight at epoch
Visualization orbit readout
Latitude
Unknown
Longitude
Unknown
Altitude
Unknown
Speed
Unknown
Apparent Right ascension
Unknown
Apparent Declination
Unknown
Sunlit
N/A
Visualization observer readout
Local Sidereal Time
06:10:17
Azimuth
Unknown
Elevation
Unknown
Doppler factor
Unknown
Orbital elements
Apogee altitude
779.089 km
Perigee altitude
710.777 km
Semi-major axis
7,123.07 km
Eccentricity
0.0048
Inclination
73.998°
RAAN
256.5397°
Arg. of periapsis
12.5105°
True anomaly
347.60537°
Mean anomaly
347.7229°
Eccentric anomaly
347.6642°
Mean motion
3.61029 °/min
Orbital period
99.71 mins
BSTAR
0.00078279
Loading maneuver chart data...
Computing Atmospheric mass density...
Loading historical data...
Loading historical data...
Loading historical data...
Loading historical data...
Loading historical data...
Loading historical data...
Loading historical data...

Documentation

Showing up to 5 results
|